Time,TemperatureF,DewpointF,PressureIn,WindDirection,WindDirectionDegrees,WindSpeedMPH,WindSpeedGustMPH,Humidity,HourlyPrecipIn,Conditions,Clouds,dailyrainin,SoftwareType,DateUTC
2013-10-18 00:01:00,59.1,55.9,29.82,WSW,251,6.0,6.0,89,0.00,,BKN050,0.00,VWS V14.01,2013-10-18 04:01:00,
2013-10-18 00:02:00,59.0,55.8,29.82,WSW,251,7.0,9.0,89,0.00,,BKN050,0.00,VWS V14.01,2013-10-18 04:02:00,
2013-10-18 00:07:00,58.9,55.7,29.82,WSW,241,5.0,9.0,89,0.00,,BKN050,0.00,VWS V14.01,2013-10-18 04:07:00,
2013-10-18 00:12:00,58.7,55.2,29.82,WSW,255,3.0,9.0,88,0.00,,BKN050,0.00,VWS V14.01,2013-10-18 04:12:00,
2013-10-18 00:17:00,58.6,55.1,29.82,WSW,248,6.0,12.0,88,0.00,,BKN050,0.00,VWS V14.01,2013-10-18 04:17:00,
2013-10-18 00:22:00,58.5,55.0,29.82,West,261,5.0,12.0,88,0.00,,BKN050,0.00,VWS V14.01,2013-10-18 04:22:00,
2013-10-18 00:27:00,58.3,54.8,29.82,West,263,6.0,12.0,88,0.00,,BKN050,0.00,VWS V14.01,2013-10-18 04:27:00,
2013-10-18 00:33:00,58.2,54.0,29.82,WSW,252,6.0,11.0,86,0.00,,BKN050,0.00,VWS V14.01,2013-10-18 04:33:00,
2013-10-18 00:38:00,58.1,53.0,29.82,WSW,249,11.0,19.0,83,0.00,,BKN050,0.00,VWS V14.01,2013-10-18 04:38:00,
2013-10-18 00:43:00,58.1,53.0,29.83,West,262,4.0,19.0,83,0.00,,BKN050,0.00,VWS V14.01,2013-10-18 04:43:00,
2013-10-18 00:48:00,58.0,53.2,29.83,WNW,282,3.0,19.0,84,0.00,,BKN050,0.00,VWS V14.01,2013-10-18 04:48:00,
2013-10-18 00:53:00,57.8,52.7,29.84,West,263,6.0,19.0,83,0.00,,BKN050,0.00,VWS V14.01,2013-10-18 04:53:00,
2013-10-18 00:58:00,57.6,52.2,29.84,WSW,257,5.0,19.0,82,0.00,,BKN050,0.00,VWS V14.01,2013-10-18 04:58:00,
2013-10-18 01:03:00,57.4,52.0,29.84,WSW,241,3.0,10.0,82,0.00,,BKN041,0.00,VWS V14.01,2013-10-18 05:03:00,
2013-10-18 01:08:00,57.3,52.2,29.84,SW,227,2.0,10.0,83,0.00,,BKN041,0.00,VWS V14.01,2013-10-18 05:08:00,
2013-10-18 01:13:00,57.1,52.0,29.84,WSW,258,4.0,10.0,83,0.00,,BKN041,0.00,VWS V14.01,2013-10-18 05:13:00,
2013-10-18 01:18:00,57.0,51.9,29.85,West,263,3.0,12.0,83,0.00,,BKN041,0.00,VWS V14.01,2013-10-18 05:18:00,
2013-10-18 01:23:00,56.8,51.7,29.85,WSW,238,1.0,12.0,83,0.00,,BKN041,0.00,VWS V14.01,2013-10-18 05:23:00,
2013-10-18 01:28:00,56.7,51.3,29.85,WSW,257,0.0,12.0,82,0.00,,BKN041,0.00,VWS V14.01,2013-10-18 05:28:00,
2013-10-18 01:33:00,56.5,51.1,29.85,WSW,243,3.0,13.0,82,0.00,,BKN041,0.00,VWS V14.01,2013-10-18 05:33:00,
2013-10-18 01:38:00,56.4,50.7,29.85,WSW,242,4.0,13.0,81,0.00,,BKN041,0.00,VWS V14.01,2013-10-18 05:38:00,
2013-10-18 01:43:00,56.2,50.1,29.85,WSW,240,11.0,15.0,80,0.00,,BKN041,0.00,VWS V14.01,2013-10-18 05:43:00,
2013-10-18 01:48:00,56.1,49.7,29.85,WSW,246,4.0,15.0,79,0.00,,BKN041,0.00,VWS V14.01,2013-10-18 05:48:00,
2013-10-18 01:53:00,56.0,49.6,29.86,WSW,255,10.0,15.0,79,0.00,,BKN041,0.00,VWS V14.01,2013-10-18 05:53:00,
2013-10-18 01:58:00,55.9,49.8,29.86,West,267,0.0,15.0,80,0.00,,BKN041,0.00,VWS V14.01,2013-10-18 05:58:00,
2013-10-18 02:03:00,55.8,49.7,29.86,West,265,0.0,11.0,80,0.00,,OVC050,0.00,VWS V14.01,2013-10-18 06:03:00,
2013-10-18 02:08:00,55.7,50.0,29.86,WSW,256,4.0,11.0,81,0.00,,OVC050,0.00,VWS V14.01,2013-10-18 06:08:00,
2013-10-18 02:13:00,55.6,49.5,29.86,WSW,253,0.0,14.0,80,0.00,,OVC050,0.00,VWS V14.01,2013-10-18 06:13:00,
2013-10-18 02:18:00,55.4,49.3,29.87,West,273,6.0,14.0,80,0.00,,OVC050,0.00,VWS V14.01,2013-10-18 06:18:00,
2013-10-18 02:23:00,55.2,49.2,29.87,WSW,241,5.0,14.0,80,0.00,,OVC050,0.00,VWS V14.01,2013-10-18 06:23:00,
2013-10-18 02:28:00,54.9,49.2,29.87,WSW,254,5.0,14.0,81,0.00,,OVC050,0.00,VWS V14.01,2013-10-18 06:28:00,
2013-10-18 02:33:00,54.6,48.9,29.87,West,275,0.0,8.0,81,0.00,,OVC050,0.00,VWS V14.01,2013-10-18 06:33:00,
2013-10-18 02:38:00,54.3,48.6,29.87,SW,236,0.0,8.0,81,0.00,,OVC050,0.00,VWS V14.01,2013-10-18 06:38:00,
2013-10-18 02:43:00,54.1,48.4,29.87,WSW,257,0.0,10.0,81,0.00,,OVC050,0.00,VWS V14.01,2013-10-18 06:43:00,
2013-10-18 02:48:00,53.9,48.2,29.87,SW,232,5.0,10.0,81,0.00,,OVC050,0.00,VWS V14.01,2013-10-18 06:48:00,
2013-10-18 02:53:00,53.7,48.3,29.86,WSW,238,0.0,10.0,82,0.00,,OVC050,0.00,VWS V14.01,2013-10-18 06:53:00,
2013-10-18 02:58:00,53.6,48.2,29.87,WSW,241,4.0,10.0,82,0.00,,OVC050,0.00,VWS V14.01,2013-10-18 06:58:00,
2013-10-18 03:03:00,53.5,48.2,29.86,WSW,251,5.0,11.0,82,0.00,,BKN055,0.00,VWS V14.01,2013-10-18 07:03:00,
2013-10-18 03:08:00,53.4,48.0,29.86,WSW,238,12.0,12.0,82,0.00,,BKN055,0.00,VWS V14.01,2013-10-18 07:08:00,
2013-10-18 03:13:00,53.2,47.9,29.87,SW,234,3.0,12.0,82,0.00,,BKN055,0.00,VWS V14.01,2013-10-18 07:13:00,
2013-10-18 03:18:00,53.1,47.8,29.87,WSW,238,4.0,12.0,82,0.00,,BKN055,0.00,VWS V14.01,2013-10-18 07:18:00,
2013-10-18 03:23:00,53.0,47.7,29.87,SW,230,0.0,12.0,82,0.00,,BKN055,0.00,VWS V14.01,2013-10-18 07:23:00,
2013-10-18 03:28:00,52.8,47.8,29.87,SSW,210,4.0,12.0,83,0.00,,BKN055,0.00,VWS V14.01,2013-10-18 07:28:00,
2013-10-18 03:33:00,52.7,47.7,29.87,SSW,203,0.0,9.0,83,0.00,,BKN055,0.00,VWS V14.01,2013-10-18 07:33:00,
2013-10-18 03:38:00,52.6,47.6,29.87,WSW,237,5.0,9.0,83,0.00,,BKN055,0.00,VWS V14.01,2013-10-18 07:38:00,
2013-10-18 03:43:00,52.5,47.5,29.88,SW,218,3.0,9.0,83,0.00,,BKN055,0.00,VWS V14.01,2013-10-18 07:43:00,
2013-10-18 03:48:00,52.4,47.7,29.88,SW,229,2.0,9.0,84,0.00,,BKN055,0.00,VWS V14.01,2013-10-18 07:48:00,
2013-10-18 03:53:00,52.2,47.5,29.88,SW,223,2.0,9.0,84,0.00,,BKN055,0.00,VWS V14.01,2013-10-18 07:53:00,
2013-10-18 03:58:00,52.1,47.4,29.88,SW,222,3.0,9.0,84,0.00,,BKN055,0.00,VWS V14.01,2013-10-18 07:58:00,
2013-10-18 04:03:00,51.9,47.5,29.88,SW,226,1.0,6.0,85,0.00,,FEW055,0.00,VWS V14.01,2013-10-18 08:03:00,
2013-10-18 04:08:00,51.8,47.4,29.88,SSW,200,0.0,6.0,85,0.00,,FEW055,0.00,VWS V14.01,2013-10-18 08:08:00,
2013-10-18 04:13:00,51.7,47.3,29.88,SW,219,3.0,6.0,85,0.00,,FEW055,0.00,VWS V14.01,2013-10-18 08:13:00,
2013-10-18 04:18:00,51.5,47.2,29.88,WSW,258,1.0,6.0,85,0.00,,FEW055,0.00,VWS V14.01,2013-10-18 08:18:00,
2013-10-18 04:23:00,51.4,47.4,29.88,WSW,244,0.0,6.0,86,0.00,,FEW055,0.00,VWS V14.01,2013-10-18 08:23:00,
2013-10-18 04:28:00,51.3,47.3,29.88,SW,233,4.0,6.0,86,0.00,,FEW055,0.00,VWS V14.01,2013-10-18 08:28:00,
2013-10-18 04:33:00,51.2,47.2,29.88,SW,230,3.0,5.0,86,0.00,,FEW055,0.00,VWS V14.01,2013-10-18 08:33:00,
2013-10-18 04:38:00,51.1,47.1,29.88,SW,221,5.0,5.0,86,0.00,,FEW055,0.00,VWS V14.01,2013-10-18 08:38:00,
2013-10-18 04:43:00,51.1,47.1,29.89,SSW,206,2.0,5.0,86,0.00,,FEW055,0.00,VWS V14.01,2013-10-18 08:43:00,
2013-10-18 04:48:00,51.1,47.1,29.89,WSW,254,3.0,8.0,86,0.00,,FEW055,0.00,VWS V14.01,2013-10-18 08:48:00,
2013-10-18 04:53:00,51.1,47.1,29.89,SW,236,4.0,8.0,86,0.00,,FEW055,0.00,VWS V14.01,2013-10-18 08:53:00,
2013-10-18 04:58:00,51.2,46.8,29.90,West,261,0.0,11.0,85,0.00,,FEW055,0.00,VWS V14.01,2013-10-18 08:58:00,
2013-10-18 05:03:00,51.2,47.2,29.90,WSW,256,0.0,6.0,86,0.00,,BKN055,0.00,VWS V14.01,2013-10-18 09:03:00,
2013-10-18 05:08:00,51.2,47.2,29.90,WSW,248,0.0,6.0,86,0.00,,BKN055,0.00,VWS V14.01,2013-10-18 09:08:00,
2013-10-18 05:13:00,51.1,47.1,29.90,SW,225,0.0,6.0,86,0.00,,BKN055,0.00,VWS V14.01,2013-10-18 09:13:00,
2013-10-18 05:18:00,51.1,47.1,29.90,WSW,250,1.0,6.0,86,0.00,,BKN055,0.00,VWS V14.01,2013-10-18 09:18:00,
2013-10-18 05:23:00,51.1,47.1,29.90,WSW,240,1.0,6.0,86,0.00,,BKN055,0.00,VWS V14.01,2013-10-18 09:23:00,
2013-10-18 05:28:00,51.1,47.4,29.90,WSW,237,0.0,6.0,87,0.00,,BKN055,0.00,VWS V14.01,2013-10-18 09:28:00,
2013-10-18 05:33:00,51.1,47.1,29.90,SW,218,2.0,5.0,86,0.00,,BKN055,0.00,VWS V14.01,2013-10-18 09:33:00,
2013-10-18 05:38:00,51.2,47.2,29.90,WSW,239,1.0,5.0,86,0.00,,BKN055,0.00,VWS V14.01,2013-10-18 09:38:00,
2013-10-18 05:43:00,51.2,47.2,29.90,WSW,242,1.0,7.0,86,0.00,,BKN055,0.00,VWS V14.01,2013-10-18 09:43:00,
2013-10-18 05:48:00,51.2,47.2,29.90,SSW,193,2.0,7.0,86,0.00,,BKN055,0.00,VWS V14.01,2013-10-18 09:48:00,
2013-10-18 05:53:00,51.2,47.2,29.91,SW,215,4.0,7.0,86,0.00,,BKN055,0.00,VWS V14.01,2013-10-18 09:53:00,
2013-10-18 05:58:00,51.2,46.8,29.91,SW,233,4.0,8.0,85,0.00,,BKN055,0.00,VWS V14.01,2013-10-18 09:58:00,
2013-10-18 06:03:00,51.1,46.8,29.91,SW,223,3.0,7.0,85,0.00,,CLR,0.00,VWS V14.01,2013-10-18 10:03:00,
2013-10-18 06:08:00,51.1,46.4,29.91,WSW,242,0.0,7.0,84,0.00,,CLR,0.00,VWS V14.01,2013-10-18 10:08:00,
2013-10-18 06:13:00,51.1,46.4,29.91,SW,217,2.0,7.0,84,0.00,,CLR,0.00,VWS V14.01,2013-10-18 10:13:00,
2013-10-18 06:18:00,51.1,46.4,29.91,SW,226,10.0,10.0,84,0.00,,CLR,0.00,VWS V14.01,2013-10-18 10:18:00,
2013-10-18 06:23:00,51.1,45.8,29.91,WSW,253,0.0,10.0,82,0.00,,CLR,0.00,VWS V14.01,2013-10-18 10:23:00,
2013-10-18 06:28:00,51.0,45.7,29.92,WSW,239,2.0,10.0,82,0.00,,CLR,0.00,VWS V14.01,2013-10-18 10:28:00,
2013-10-18 06:33:00,51.0,45.4,29.92,WSW,256,0.0,4.0,81,0.00,,CLR,0.00,VWS V14.01,2013-10-18 10:33:00,
2013-10-18 06:38:00,50.9,45.3,29.92,SW,227,1.0,6.0,81,0.00,,CLR,0.00,VWS V14.01,2013-10-18 10:38:00,
2013-10-18 06:43:00,50.8,45.2,29.92,WSW,243,0.0,6.0,81,0.00,,CLR,0.00,VWS V14.01,2013-10-18 10:43:00,
2013-10-18 06:48:00,50.7,45.1,29.93,SW,221,1.0,6.0,81,0.00,,CLR,0.00,VWS V14.01,2013-10-18 10:48:00,
2013-10-18 06:54:00,50.7,44.8,29.93,SW,218,3.0,9.0,80,0.00,,CLR,0.00,VWS V14.01,2013-10-18 10:54:00,
2013-10-18 06:58:00,50.6,44.7,29.93,SSW,213,3.0,9.0,80,0.00,,CLR,0.00,VWS V14.01,2013-10-18 10:58:00,
2013-10-18 07:03:00,50.5,44.6,29.93,SW,229,0.0,4.0,80,0.00,,BKN050,0.00,VWS V14.01,2013-10-18 11:03:00,
2013-10-18 07:09:00,50.5,44.9,29.93,SW,234,1.0,5.0,81,0.00,,BKN050,0.00,VWS V14.01,2013-10-18 11:09:00,
2013-10-18 07:14:00,50.6,45.0,29.93,SSW,205,1.0,6.0,81,0.00,,BKN050,0.00,VWS V14.01,2013-10-18 11:14:00,
2013-10-18 07:19:00,50.6,45.0,29.94,WSW,241,2.0,6.0,81,0.00,,BKN050,0.00,VWS V14.01,2013-10-18 11:19:00,
2013-10-18 07:24:00,50.6,45.0,29.94,SW,230,0.0,6.0,81,0.00,,BKN050,0.00,VWS V14.01,2013-10-18 11:24:00,
2013-10-18 07:29:00,50.7,45.1,29.94,WSW,242,0.0,6.0,81,0.00,,BKN050,0.00,VWS V14.01,2013-10-18 11:29:00,
2013-10-18 07:34:00,50.7,45.4,29.94,SW,222,2.0,7.0,82,0.00,,BKN050,0.00,VWS V14.01,2013-10-18 11:34:00,
2013-10-18 07:39:00,50.8,45.5,29.94,SW,229,3.0,7.0,82,0.00,,BKN050,0.00,VWS V14.01,2013-10-18 11:39:00,
2013-10-18 07:44:00,50.9,45.6,29.95,WSW,247,2.0,7.0,82,0.00,,BKN050,0.00,VWS V14.01,2013-10-18 11:44:00,
2013-10-18 07:49:00,51.0,45.7,29.95,WSW,239,2.0,7.0,82,0.00,,BKN050,0.00,VWS V14.01,2013-10-18 11:49:00,
2013-10-18 07:54:00,51.0,45.4,29.95,SW,236,5.0,7.0,81,0.00,,BKN050,0.00,VWS V14.01,2013-10-18 11:54:00,
2013-10-18 07:59:00,51.2,45.6,29.95,SSW,209,0.0,7.0,81,0.00,,BKN050,0.00,VWS V14.01,2013-10-18 11:59:00,
2013-10-18 08:04:00,51.2,45.6,29.96,SSW,210,2.0,3.0,81,0.00,,OVC042,0.00,VWS V14.01,2013-10-18 12:04:00,
2013-10-18 08:09:00,51.4,45.8,29.96,SSW,209,7.0,7.0,81,0.00,,OVC042,0.00,VWS V14.01,2013-10-18 12:09:00,
2013-10-18 08:14:00,51.5,45.9,29.96,SSW,210,2.0,8.0,81,0.00,,OVC042,0.00,VWS V14.01,2013-10-18 12:14:00,
2013-10-18 08:19:00,51.6,45.6,29.97,SSW,211,1.0,8.0,80,0.00,,OVC042,0.00,VWS V14.01,2013-10-18 12:19:00,
2013-10-18 08:24:00,51.8,45.8,29.96,WSW,257,1.0,8.0,80,0.00,,OVC042,0.00,VWS V14.01,2013-10-18 12:24:00,
2013-10-18 08:29:00,51.9,45.6,29.96,WSW,238,1.0,8.0,79,0.00,,OVC042,0.00,VWS V14.01,2013-10-18 12:29:00,
2013-10-18 08:34:00,51.9,45.6,29.96,WSW,252,4.0,8.0,79,0.00,,OVC042,0.00,VWS V14.01,2013-10-18 12:34:00,
2013-10-18 08:39:00,52.0,45.7,29.97,SW,229,0.0,8.0,79,0.00,,OVC042,0.00,VWS V14.01,2013-10-18 12:39:00,
2013-10-18 08:44:00,51.8,45.5,29.97,SW,223,2.0,8.0,79,0.00,,OVC042,0.00,VWS V14.01,2013-10-18 12:44:00,
2013-10-18 08:49:00,52.2,45.9,29.97,WSW,255,2.0,10.0,79,0.00,,OVC042,0.00,VWS V14.01,2013-10-18 12:49:00,
2013-10-18 08:54:00,52.4,46.1,29.97,West,263,0.0,10.0,79,0.00,,OVC042,0.00,VWS V14.01,2013-10-18 12:54:00,
2013-10-18 08:59:00,52.6,46.0,29.97,WSW,251,5.0,10.0,78,0.00,,OVC042,0.00,VWS V14.01,2013-10-18 12:59:00,
2013-10-18 09:04:00,52.8,46.1,29.98,WSW,245,8.0,8.0,78,0.00,,OVC048,0.00,VWS V14.01,2013-10-18 13:04:00,
2013-10-18 09:09:00,53.0,46.3,29.98,SW,228,0.0,8.0,78,0.00,,OVC048,0.00,VWS V14.01,2013-10-18 13:09:00,
2013-10-18 09:14:00,53.4,46.7,29.98,West,271,6.0,8.0,78,0.00,,OVC048,0.00,VWS V14.01,2013-10-18 13:14:00,
2013-10-18 09:19:00,53.7,46.7,29.98,SW,231,2.0,8.0,77,0.00,,OVC048,0.00,VWS V14.01,2013-10-18 13:19:00,
2013-10-18 09:24:00,54.0,47.0,29.98,SSW,207,5.0,9.0,77,0.00,,OVC048,0.00,VWS V14.01,2013-10-18 13:24:00,
2013-10-18 09:29:00,54.4,47.0,29.99,SW,230,5.0,12.0,76,0.00,,OVC048,0.00,VWS V14.01,2013-10-18 13:29:00,
2013-10-18 09:34:00,54.6,46.8,29.99,WSW,258,0.0,15.0,75,0.00,,OVC048,0.00,VWS V14.01,2013-10-18 13:34:00,
2013-10-18 09:39:00,54.8,47.0,29.99,WNW,296,2.0,15.0,75,0.00,,OVC048,0.00,VWS V14.01,2013-10-18 13:39:00,
2013-10-18 09:44:00,54.9,47.1,29.99,West,265,2.0,15.0,75,0.00,,OVC048,0.00,VWS V14.01,2013-10-18 13:44:00,
2013-10-18 09:49:00,55.0,47.2,30.00,SW,230,6.0,15.0,75,0.00,,OVC048,0.00,VWS V14.01,2013-10-18 13:49:00,
2013-10-18 09:54:00,55.0,47.6,30.00,WSW,243,5.0,15.0,76,0.00,,OVC048,0.00,VWS V14.01,2013-10-18 13:54:00,
2013-10-18 09:59:00,55.0,47.6,30.00,SW,235,6.0,15.0,76,0.00,,OVC048,0.00,VWS V14.01,2013-10-18 13:59:00,
2013-10-18 10:04:00,55.2,47.8,30.00,SW,218,5.0,8.0,76,0.00,,OVC041,0.00,VWS V14.01,2013-10-18 14:04:00,
2013-10-18 10:09:00,55.5,47.7,30.00,SSW,210,2.0,8.0,75,0.00,,OVC041,0.00,VWS V14.01,2013-10-18 14:09:00,
2013-10-18 10:14:00,55.9,47.7,30.00,SW,224,9.0,11.0,74,0.00,,OVC041,0.00,VWS V14.01,2013-10-18 14:14:00,
2013-10-18 10:19:00,56.1,47.9,30.00,SW,227,6.0,13.0,74,0.00,,OVC041,0.00,VWS V14.01,2013-10-18 14:19:00,
2013-10-18 10:24:00,56.2,48.0,30.00,WSW,239,3.0,13.0,74,0.00,,OVC041,0.00,VWS V14.01,2013-10-18 14:24:00,
2013-10-18 10:29:00,56.2,48.4,30.01,WSW,253,6.0,13.0,75,0.00,,OVC041,0.00,VWS V14.01,2013-10-18 14:29:00,
2013-10-18 10:34:00,56.4,47.9,30.01,West,262,4.0,10.0,73,0.00,,OVC041,0.00,VWS V14.01,2013-10-18 14:34:00,
2013-10-18 10:39:00,56.7,48.5,30.01,WSW,247,3.0,10.0,74,0.00,,OVC041,0.00,VWS V14.01,2013-10-18 14:39:00,
2013-10-18 10:44:00,56.9,48.7,30.00,WSW,248,4.0,10.0,74,0.00,,OVC041,0.00,VWS V14.01,2013-10-18 14:44:00,
2013-10-18 10:49:00,57.1,48.5,30.00,West,260,3.0,10.0,73,0.00,,OVC041,0.00,VWS V14.01,2013-10-18 14:49:00,
2013-10-18 10:54:00,57.2,48.6,30.00,SW,218,4.0,10.0,73,0.00,,OVC041,0.00,VWS V14.01,2013-10-18 14:54:00,
2013-10-18 10:59:00,57.3,48.7,30.01,SW,221,5.0,10.0,73,0.00,,OVC041,0.00,VWS V14.01,2013-10-18 14:59:00,
2013-10-18 11:04:00,57.3,49.1,30.01,WSW,244,6.0,9.0,74,0.00,,OVC045,0.00,VWS V14.01,2013-10-18 15:04:00,
2013-10-18 11:09:00,57.3,48.4,30.01,WSW,251,3.0,13.0,72,0.00,,OVC045,0.00,VWS V14.01,2013-10-18 15:09:00,
2013-10-18 11:14:00,57.5,48.6,30.01,SW,222,4.0,13.0,72,0.00,,OVC045,0.00,VWS V14.01,2013-10-18 15:14:00,
2013-10-18 11:19:00,57.9,48.9,30.01,WSW,240,4.0,13.0,72,0.00,,OVC045,0.00,VWS V14.01,2013-10-18 15:19:00,
2013-10-18 11:24:00,57.9,48.6,30.01,SW,236,4.0,13.0,71,0.00,,OVC045,0.00,VWS V14.01,2013-10-18 15:24:00,
2013-10-18 11:29:00,57.9,48.9,33.18,WSW,251,5.0,13.0,72,0.00,,OVC045,0.00,VWS V14.01,2013-10-18 15:29:00,
2013-10-18 11:34:00,57.8,0.0,33.18,WSW,251,4.0,12.0,71,0.00,,OVC045,0.00,VWS V14.01,2013-10-18 15:34:00,
2013-10-18 11:39:00,57.6,48.7,30.01,WSW,247,4.0,12.0,72,0.00,,OVC045,0.00,VWS V14.01,2013-10-18 15:39:00,
2013-10-18 11:44:00,57.5,48.6,30.01,NW,310,1.0,12.0,72,0.00,,OVC045,0.00,VWS V14.01,2013-10-18 15:44:00,
2013-10-18 11:49:00,57.5,48.2,30.01,SW,231,4.0,12.0,71,0.00,,OVC045,0.00,VWS V14.01,2013-10-18 15:49:00,
2013-10-18 11:54:00,57.4,48.5,30.02,WSW,251,5.0,12.0,72,0.00,,OVC045,0.00,VWS V14.01,2013-10-18 15:54:00,
2013-10-18 11:59:00,57.3,47.6,30.02,WSW,251,4.0,12.0,70,0.00,,OVC045,0.00,VWS V14.01,2013-10-18 15:59:00,
2013-10-18 12:04:00,57.4,48.1,30.02,WSW,254,6.0,7.0,71,0.00,,OVC043,0.00,VWS V14.01,2013-10-18 16:04:00,
2013-10-18 12:09:00,57.4,47.7,30.02,WSW,237,5.0,14.0,70,0.00,,OVC043,0.00,VWS V14.01,2013-10-18 16:09:00,
2013-10-18 12:14:00,57.3,47.6,30.02,WSW,242,7.0,14.0,70,0.00,,OVC043,0.00,VWS V14.01,2013-10-18 16:14:00,
2013-10-18 12:19:00,57.3,47.6,30.02,WSW,254,2.0,14.0,70,0.00,,OVC043,0.00,VWS V14.01,2013-10-18 16:19:00,
2013-10-18 12:24:00,57.3,47.6,30.02,West,271,2.0,14.0,70,0.00,,OVC043,0.00,VWS V14.01,2013-10-18 16:24:00,
2013-10-18 12:29:00,57.5,48.2,30.01,West,261,0.0,14.0,71,0.00,,OVC043,0.00,VWS V14.01,2013-10-18 16:29:00,
2013-10-18 12:34:00,57.6,47.9,30.01,WSW,248,2.0,8.0,70,0.00,,OVC043,0.00,VWS V14.01,2013-10-18 16:34:00,
2013-10-18 12:39:00,57.8,48.1,30.01,WSW,251,4.0,12.0,70,0.00,,OVC043,0.00,VWS V14.01,2013-10-18 16:39:00,
2013-10-18 12:44:00,58.1,48.4,30.01,SW,232,5.0,12.0,70,0.00,,OVC043,0.00,VWS V14.01,2013-10-18 16:44:00,
2013-10-18 12:49:00,58.6,48.1,30.00,NW,324,4.0,16.0,68,0.00,,OVC043,0.00,VWS V14.01,2013-10-18 16:49:00,
2013-10-18 12:54:00,58.6,48.1,30.01,SW,234,7.0,16.0,68,0.00,,OVC043,0.00,VWS V14.01,2013-10-18 16:54:00,
2013-10-18 12:59:00,58.6,47.7,30.00,West,266,3.0,16.0,67,0.00,,OVC043,0.00,VWS V14.01,2013-10-18 16:59:00,
2013-10-18 13:04:00,58.8,47.5,30.00,SW,233,5.0,13.0,66,0.00,,BKN050,0.00,VWS V14.01,2013-10-18 17:04:00,
2013-10-18 13:09:00,59.2,47.9,30.00,West,265,4.0,15.0,66,0.00,,BKN050,0.00,VWS V14.01,2013-10-18 17:09:00,
2013-10-18 13:14:00,59.6,48.2,30.00,WSW,246,2.0,15.0,66,0.00,,BKN050,0.00,VWS V14.01,2013-10-18 17:14:00,
2013-10-18 13:19:00,60.3,48.9,30.00,West,270,4.0,15.0,66,0.00,,BKN050,0.00,VWS V14.01,2013-10-18 17:19:00,
2013-10-18 13:24:00,60.6,48.4,30.00,WNW,286,4.0,15.0,64,0.00,,BKN050,0.00,VWS V14.01,2013-10-18 17:24:00,
2013-10-18 13:29:00,60.8,49.0,30.00,SW,236,6.0,15.0,65,0.00,,BKN050,0.00,VWS V14.01,2013-10-18 17:29:00,
2013-10-18 13:34:00,60.8,48.1,30.00,West,263,5.0,11.0,63,0.00,,BKN050,0.00,VWS V14.01,2013-10-18 17:34:00,
2013-10-18 13:35:00,60.8,48.1,30.00,WSW,244,8.0,11.0,63,0.00,,BKN050,0.00,VWS V14.01,2013-10-18 17:35:00,
2013-10-18 13:40:00,61.0,48.3,30.00,WSW,257,6.0,13.0,63,0.00,,BKN050,0.00,VWS V14.01,2013-10-18 17:40:00,
2013-10-18 13:45:00,61.4,48.3,30.00,West,280,5.0,13.0,62,0.00,,BKN050,0.00,VWS V14.01,2013-10-18 17:45:00,
2013-10-18 13:50:00,61.6,48.0,30.00,WSW,251,5.0,13.0,61,0.00,,BKN050,0.00,VWS V14.01,2013-10-18 17:50:00,
2013-10-18 13:55:00,61.5,47.5,30.00,WNW,294,2.0,13.0,60,0.00,,BKN050,0.00,VWS V14.01,2013-10-18 17:55:00,
2013-10-18 14:00:00,61.4,47.8,30.00,WSW,237,8.0,13.0,61,0.00,,BKN050,0.00,VWS V14.01,2013-10-18 18:00:00,
2013-10-18 14:05:00,61.3,47.8,30.00,WNW,287,1.0,8.0,61,0.00,,BKN047,0.00,VWS V14.01,2013-10-18 18:05:00,
2013-10-18 14:10:00,61.2,47.2,30.00,WSW,246,6.0,14.0,60,0.00,,BKN047,0.00,VWS V14.01,2013-10-18 18:10:00,
2013-10-18 14:15:00,61.4,47.8,29.99,West,263,0.0,14.0,61,0.00,,BKN047,0.00,VWS V14.01,2013-10-18 18:15:00,
2013-10-18 14:20:00,61.9,48.3,29.99,WSW,245,7.0,14.0,61,0.00,,BKN047,0.00,VWS V14.01,2013-10-18 18:20:00,
2013-10-18 14:25:00,62.0,48.0,29.99,WSW,237,5.0,15.0,60,0.00,,BKN047,0.00,VWS V14.01,2013-10-18 18:25:00,
2013-10-18 14:30:00,62.2,47.7,29.99,SW,221,4.0,15.0,59,0.00,,BKN047,0.00,VWS V14.01,2013-10-18 18:30:00,
2013-10-18 14:35:00,62.7,47.7,29.99,WSW,255,4.0,12.0,58,0.00,,BKN047,0.00,VWS V14.01,2013-10-18 18:35:00,
2013-10-18 14:40:00,62.9,47.9,29.99,West,264,4.0,12.0,58,0.00,,BKN047,0.00,VWS V14.01,2013-10-18 18:40:00,
2013-10-18 14:45:00,63.0,47.5,29.99,WSW,255,2.0,12.0,57,0.00,,BKN047,0.00,VWS V14.01,2013-10-18 18:45:00,
2013-10-18 14:50:00,62.8,47.8,29.99,WSW,255,8.0,12.0,58,0.00,,BKN047,0.00,VWS V14.01,2013-10-18 18:50:00,
2013-10-18 14:55:00,62.5,46.6,29.99,West,263,2.0,12.0,56,0.00,,BKN047,0.00,VWS V14.01,2013-10-18 18:55:00,
2013-10-18 15:00:00,62.4,46.5,29.99,West,264,4.0,12.0,56,0.00,,BKN047,0.00,VWS V14.01,2013-10-18 19:00:00,
2013-10-18 15:05:00,62.4,45.5,29.99,West,260,8.0,14.0,54,0.00,,FEW047,0.00,VWS V14.01,2013-10-18 19:05:00,
2013-10-18 15:10:00,62.3,45.5,29.99,WSW,243,7.0,15.0,54,0.00,,FEW047,0.00,VWS V14.01,2013-10-18 19:10:00,
2013-10-18 15:15:00,62.6,46.2,29.99,SW,226,7.0,15.0,55,0.00,,FEW047,0.00,VWS V14.01,2013-10-18 19:15:00,
2013-10-18 15:20:00,62.6,45.2,29.99,West,259,6.0,15.0,53,0.00,,FEW047,0.00,VWS V14.01,2013-10-18 19:20:00,
2013-10-18 15:25:00,62.6,45.2,29.99,SW,225,5.0,15.0,53,0.00,,FEW047,0.00,VWS V14.01,2013-10-18 19:25:00,
2013-10-18 15:30:00,62.9,46.5,29.99,SW,236,10.0,14.0,55,0.00,,FEW047,0.00,VWS V14.01,2013-10-18 19:30:00,
2013-10-18 15:35:00,63.0,46.1,29.98,West,260,5.0,14.0,54,0.00,,FEW047,0.00,VWS V14.01,2013-10-18 19:35:00,
2013-10-18 15:40:00,62.9,45.0,29.98,West,266,5.0,14.0,52,0.00,,FEW047,0.00,VWS V14.01,2013-10-18 19:40:00,
2013-10-18 15:45:00,63.1,45.7,29.98,NW,316,2.0,14.0,53,0.00,,FEW047,0.00,VWS V14.01,2013-10-18 19:45:00,
2013-10-18 15:50:00,63.3,45.9,29.98,WSW,250,0.0,14.0,53,0.00,,FEW047,0.00,VWS V14.01,2013-10-18 19:50:00,
2013-10-18 15:55:00,63.5,46.1,29.98,WNW,295,3.0,14.0,53,0.00,,FEW047,0.00,VWS V14.01,2013-10-18 19:55:00,
2013-10-18 16:00:00,63.6,45.7,29.98,West,276,0.0,3.0,52,0.00,,FEW047,0.00,VWS V14.01,2013-10-18 20:00:00,
2013-10-18 16:05:00,64.0,46.0,29.98,NNW,344,1.0,9.0,52,0.00,,CLR,0.00,VWS V14.01,2013-10-18 20:05:00,
2013-10-18 16:10:00,64.1,46.1,29.98,WSW,254,3.0,14.0,52,0.00,,CLR,0.00,VWS V14.01,2013-10-18 20:10:00,
2013-10-18 16:15:00,64.2,45.7,29.99,WSW,239,11.0,14.0,51,0.00,,CLR,0.00,VWS V14.01,2013-10-18 20:15:00,
2013-10-18 16:20:00,64.1,45.1,29.98,WSW,253,2.0,14.0,50,0.00,,CLR,0.00,VWS V14.01,2013-10-18 20:20:00,
2013-10-18 16:25:00,64.0,44.5,29.98,West,265,3.0,14.0,49,0.00,,CLR,0.00,VWS V14.01,2013-10-18 20:25:00,
2013-10-18 16:30:00,64.0,45.5,29.98,SW,223,1.0,3.0,51,0.00,,CLR,0.00,VWS V14.01,2013-10-18 20:30:00,
2013-10-18 16:35:00,64.0,45.5,29.98,WSW,254,0.0,8.0,51,0.00,,CLR,0.00,VWS V14.01,2013-10-18 20:35:00,
2013-10-18 16:40:00,63.9,44.4,29.98,NNW,343,4.0,9.0,49,0.00,,CLR,0.00,VWS V14.01,2013-10-18 20:40:00,
2013-10-18 16:45:00,63.7,45.2,29.98,SSW,199,2.0,9.0,51,0.00,,CLR,0.00,VWS V14.01,2013-10-18 20:45:00,
2013-10-18 16:50:00,64.0,43.9,29.98,WSW,254,3.0,11.0,48,0.00,,CLR,0.00,VWS V14.01,2013-10-18 20:50:00,
2013-10-18 16:55:00,63.9,44.9,29.98,West,261,3.0,11.0,50,0.00,,CLR,0.00,VWS V14.01,2013-10-18 20:55:00,
2013-10-18 17:00:00,64.1,45.1,29.98,NW,308,0.0,2.0,50,0.00,,CLR,0.00,VWS V14.01,2013-10-18 21:00:00,
2013-10-18 17:05:00,64.1,45.1,29.99,WNW,300,3.0,6.0,50,0.00,,CLR,0.00,VWS V14.01,2013-10-18 21:05:00,
2013-10-18 17:10:00,64.1,45.1,29.99,WNW,294,0.0,9.0,50,0.00,,CLR,0.00,VWS V14.01,2013-10-18 21:10:00,
2013-10-18 17:15:00,64.1,45.6,29.99,West,272,2.0,9.0,51,0.00,,CLR,0.00,VWS V14.01,2013-10-18 21:15:00,
2013-10-18 17:20:00,63.9,44.9,29.99,WNW,293,0.0,9.0,50,0.00,,CLR,0.00,VWS V14.01,2013-10-18 21:20:00,
2013-10-18 17:25:00,63.7,44.7,29.99,WSW,252,0.0,9.0,50,0.00,,CLR,0.00,VWS V14.01,2013-10-18 21:25:00,
2013-10-18 17:30:00,63.7,45.8,29.99,SW,217,0.0,0.0,52,0.00,,CLR,0.00,VWS V14.01,2013-10-18 21:30:00,
2013-10-18 17:35:00,63.7,45.2,30.00,West,269,2.0,7.0,51,0.00,,CLR,0.00,VWS V14.01,2013-10-18 21:35:00,
2013-10-18 17:40:00,63.5,45.1,30.00,West,269,0.0,7.0,51,0.00,,CLR,0.00,VWS V14.01,2013-10-18 21:40:00,
2013-10-18 17:45:00,63.4,45.5,30.00,West,269,0.0,7.0,52,0.00,,CLR,0.00,VWS V14.01,2013-10-18 21:45:00,
2013-10-18 17:50:00,63.2,45.3,30.00,West,269,0.0,7.0,52,0.00,,CLR,0.00,VWS V14.01,2013-10-18 21:50:00,
2013-10-18 17:55:00,62.9,45.5,29.99,West,269,0.0,7.0,53,0.00,,CLR,0.00,VWS V14.01,2013-10-18 21:55:00,
2013-10-18 18:00:00,62.4,45.5,29.99,West,269,0.0,0.0,54,0.00,,CLR,0.00,VWS V14.01,2013-10-18 22:00:00,
2013-10-18 18:05:00,61.7,45.9,29.99,West,267,0.0,0.0,56,0.00,,CLR,0.00,VWS V14.01,2013-10-18 22:05:00,
2013-10-18 18:10:00,60.8,46.0,30.00,West,268,0.0,0.0,58,0.00,,CLR,0.00,VWS V14.01,2013-10-18 22:10:00,
2013-10-18 18:15:00,59.9,46.0,29.99,West,267,0.0,0.0,60,0.00,,CLR,0.00,VWS V14.01,2013-10-18 22:15:00,
2013-10-18 18:20:00,59.0,46.4,29.99,West,259,0.0,1.0,63,0.00,,CLR,0.00,VWS V14.01,2013-10-18 22:20:00,
2013-10-18 18:25:00,58.1,46.4,29.99,WSW,256,0.0,1.0,65,0.00,,CLR,0.00,VWS V14.01,2013-10-18 22:25:00,
2013-10-18 18:30:00,57.1,46.3,30.00,WSW,255,0.0,0.0,67,0.00,,CLR,0.00,VWS V14.01,2013-10-18 22:30:00,
2013-10-18 18:36:00,56.3,46.3,29.99,West,267,0.0,0.0,69,0.00,,CLR,0.00,VWS V14.01,2013-10-18 22:36:00,
2013-10-18 18:41:00,55.5,46.3,30.00,West,268,0.0,1.0,71,0.00,,CLR,0.00,VWS V14.01,2013-10-18 22:41:00,
2013-10-18 18:46:00,54.8,46.0,30.00,West,268,0.0,1.0,72,0.00,,CLR,0.00,VWS V14.01,2013-10-18 22:46:00,
2013-10-18 18:51:00,54.1,45.3,30.00,West,268,0.0,1.0,72,0.00,,CLR,0.00,VWS V14.01,2013-10-18 22:51:00,
2013-10-18 18:56:00,53.4,45.0,30.00,West,267,0.0,1.0,73,0.00,,CLR,0.00,VWS V14.01,2013-10-18 22:56:00,
2013-10-18 19:01:00,52.8,45.1,30.00,West,267,0.0,0.0,75,0.00,,CLR,0.00,VWS V14.01,2013-10-18 23:01:00,
2013-10-18 19:06:00,52.2,44.9,30.00,West,265,0.0,1.0,76,0.00,,CLR,0.00,VWS V14.01,2013-10-18 23:06:00,
2013-10-18 19:11:00,51.6,44.6,30.01,West,265,0.0,1.0,77,0.00,,CLR,0.00,VWS V14.01,2013-10-18 23:11:00,
2013-10-18 19:16:00,51.1,44.2,30.01,West,265,0.0,1.0,77,0.00,,CLR,0.00,VWS V14.01,2013-10-18 23:16:00,
2013-10-18 19:21:00,50.6,44.0,30.01,West,264,0.0,1.0,78,0.00,,CLR,0.00,VWS V14.01,2013-10-18 23:21:00,
2013-10-18 19:26:00,50.1,43.5,30.01,West,267,0.0,1.0,78,0.00,,CLR,0.00,VWS V14.01,2013-10-18 23:26:00,
2013-10-18 19:31:00,49.7,43.5,30.01,West,269,0.0,0.0,79,0.00,,CLR,0.00,VWS V14.01,2013-10-18 23:31:00,
2013-10-18 19:36:00,49.2,43.0,30.02,West,269,0.0,0.0,79,0.00,,CLR,0.00,VWS V14.01,2013-10-18 23:36:00,
2013-10-18 19:41:00,48.8,42.6,30.02,West,269,0.0,0.0,79,0.00,,CLR,0.00,VWS V14.01,2013-10-18 23:41:00,
2013-10-18 19:46:00,48.3,42.1,30.02,West,269,0.0,0.0,79,0.00,,CLR,0.00,VWS V14.01,2013-10-18 23:46:00,
2013-10-18 19:51:00,47.9,42.0,30.02,West,269,0.0,0.0,80,0.00,,CLR,0.00,VWS V14.01,2013-10-18 23:51:00,
2013-10-18 19:56:00,47.6,42.1,30.02,West,269,0.0,0.0,81,0.00,,CLR,0.00,VWS V14.01,2013-10-18 23:56:00,
2013-10-18 20:01:00,47.3,42.1,30.02,West,269,0.0,0.0,82,0.00,,CLR,0.00,VWS V14.01,2013-10-19 00:01:00,
2013-10-18 20:06:00,47.0,41.8,30.02,West,269,0.0,0.0,82,0.00,,CLR,0.00,VWS V14.01,2013-10-19 00:06:00,
2013-10-18 20:11:00,46.7,41.5,30.02,West,269,0.0,0.0,82,0.00,,CLR,0.00,VWS V14.01,2013-10-19 00:11:00,
2013-10-18 20:16:00,46.5,41.6,30.02,West,269,0.0,0.0,83,0.00,,CLR,0.00,VWS V14.01,2013-10-19 00:16:00,
2013-10-18 20:21:00,46.2,41.3,30.02,West,269,0.0,0.0,83,0.00,,CLR,0.00,VWS V14.01,2013-10-19 00:21:00,
2013-10-18 20:26:00,46.0,41.4,30.02,West,269,0.0,0.0,84,0.00,,CLR,0.00,VWS V14.01,2013-10-19 00:26:00,
2013-10-18 20:31:00,45.8,41.5,30.02,West,269,0.0,0.0,85,0.00,,CLR,0.00,VWS V14.01,2013-10-19 00:31:00,
2013-10-18 20:36:00,45.6,41.7,30.02,West,269,0.0,0.0,86,0.00,,CLR,0.00,VWS V14.01,2013-10-19 00:36:00,
2013-10-18 20:41:00,45.3,41.4,30.02,West,269,0.0,0.0,86,0.00,,CLR,0.00,VWS V14.01,2013-10-19 00:41:00,
2013-10-18 20:46:00,45.1,41.2,30.02,West,269,0.0,0.0,86,0.00,,CLR,0.00,VWS V14.01,2013-10-19 00:46:00,
2013-10-18 20:51:00,44.8,40.9,30.02,West,269,0.0,0.0,86,0.00,,CLR,0.00,VWS V14.01,2013-10-19 00:51:00,
2013-10-18 20:56:00,44.7,41.1,30.03,West,269,0.0,0.0,87,0.00,,CLR,0.00,VWS V14.01,2013-10-19 00:56:00,
2013-10-18 21:01:00,44.4,40.8,30.03,West,269,0.0,0.0,87,0.00,,CLR,0.00,VWS V14.01,2013-10-19 01:01:00,
2013-10-18 21:06:00,44.3,41.0,30.03,West,269,0.0,0.0,88,0.00,,CLR,0.00,VWS V14.01,2013-10-19 01:06:00,
2013-10-18 21:11:00,44.1,40.8,30.03,West,269,0.0,0.0,88,0.00,,CLR,0.00,VWS V14.01,2013-10-19 01:11:00,
2013-10-18 21:16:00,44.0,40.7,30.03,West,269,0.0,0.0,88,0.00,,CLR,0.00,VWS V14.01,2013-10-19 01:16:00,
2013-10-18 21:21:00,43.8,40.8,30.03,West,269,0.0,0.0,89,0.00,,CLR,0.00,VWS V14.01,2013-10-19 01:21:00,
2013-10-18 21:26:00,43.7,40.7,30.03,West,269,0.0,0.0,89,0.00,,CLR,0.00,VWS V14.01,2013-10-19 01:26:00,
2013-10-18 21:31:00,43.5,40.8,30.03,West,269,0.0,0.0,90,0.00,,CLR,0.00,VWS V14.01,2013-10-19 01:31:00,
2013-10-18 21:36:00,43.4,40.7,30.03,West,269,0.0,0.0,90,0.00,,CLR,0.00,VWS V14.01,2013-10-19 01:36:00,
2013-10-18 21:41:00,43.3,40.6,30.03,West,269,0.0,0.0,90,0.00,,CLR,0.00,VWS V14.01,2013-10-19 01:41:00,
2013-10-18 21:46:00,43.1,40.4,30.03,West,269,0.0,0.0,90,0.00,,CLR,0.00,VWS V14.01,2013-10-19 01:46:00,
2013-10-18 21:51:00,42.9,40.5,30.03,West,269,0.0,0.0,91,0.00,,CLR,0.00,VWS V14.01,2013-10-19 01:51:00,
2013-10-18 21:56:00,42.8,40.1,30.03,West,269,0.0,0.0,90,0.00,,CLR,0.00,VWS V14.01,2013-10-19 01:56:00,
2013-10-18 22:01:00,42.6,40.2,30.03,West,269,0.0,0.0,91,0.00,,,0.00,VWS V14.01,2013-10-19 02:01:00,
2013-10-18 22:06:00,42.5,40.1,30.04,West,269,0.0,0.0,91,0.00,,,0.00,VWS V14.01,2013-10-19 02:06:00,
2013-10-18 22:11:00,42.4,40.0,30.04,West,269,0.0,0.0,91,0.00,,,0.00,VWS V14.01,2013-10-19 02:11:00,
2013-10-18 22:16:00,42.2,39.8,30.04,West,269,0.0,0.0,91,0.00,,,0.00,VWS V14.01,2013-10-19 02:16:00,
2013-10-18 22:21:00,42.1,39.7,30.04,West,269,0.0,0.0,91,0.00,,,0.00,VWS V14.01,2013-10-19 02:21:00,
2013-10-18 22:26:00,42.0,39.8,30.04,West,269,0.0,0.0,92,0.00,,,0.00,VWS V14.01,2013-10-19 02:26:00,
2013-10-18 22:31:00,42.0,39.8,30.04,West,269,0.0,0.0,92,0.00,,,0.00,VWS V14.01,2013-10-19 02:31:00,
2013-10-18 22:36:00,41.8,39.7,30.04,West,269,0.0,0.0,92,0.00,,,0.00,VWS V14.01,2013-10-19 02:36:00,
2013-10-18 22:41:00,41.8,39.9,30.04,West,269,0.0,0.0,93,0.00,,,0.00,VWS V14.01,2013-10-19 02:41:00,
2013-10-18 22:46:00,41.7,39.8,30.05,West,269,0.0,0.0,93,0.00,,,0.00,VWS V14.01,2013-10-19 02:46:00,
2013-10-18 22:51:00,41.5,39.6,30.05,West,269,0.0,0.0,93,0.00,,,0.00,VWS V14.01,2013-10-19 02:51:00,
2013-10-18 22:56:00,41.3,39.4,30.05,West,268,0.0,0.0,93,0.00,,,0.00,VWS V14.01,2013-10-19 02:56:00,
2013-10-18 23:01:00,41.2,39.3,30.05,West,268,0.0,0.0,93,0.00,,,0.00,VWS V14.01,2013-10-19 03:01:00,
2013-10-18 23:06:00,41.1,39.2,30.05,West,268,0.0,0.0,93,0.00,,,0.00,VWS V14.01,2013-10-19 03:06:00,
2013-10-18 23:11:00,41.1,39.2,30.05,West,268,0.0,0.0,93,0.00,,,0.00,VWS V14.01,2013-10-19 03:11:00,
2013-10-18 23:16:00,41.1,39.2,30.05,West,268,0.0,0.0,93,0.00,,,0.00,VWS V14.01,2013-10-19 03:16:00,
2013-10-18 23:21:00,40.9,39.3,30.05,West,268,0.0,0.0,94,0.00,,,0.00,VWS V14.01,2013-10-19 03:21:00,
2013-10-18 23:26:00,40.9,39.3,30.05,West,268,0.0,0.0,94,0.00,,,0.00,VWS V14.01,2013-10-19 03:26:00,
2013-10-18 23:31:00,40.8,39.2,30.05,West,268,0.0,0.0,94,0.00,,,0.00,VWS V14.01,2013-10-19 03:31:00,
2013-10-18 23:36:00,40.6,39.0,30.05,West,268,0.0,0.0,94,0.00,,,0.00,VWS V14.01,2013-10-19 03:36:00,
2013-10-18 23:41:00,40.6,39.0,30.05,West,268,0.0,0.0,94,0.00,,,0.00,VWS V14.01,2013-10-19 03:41:00,
2013-10-18 23:46:00,40.5,38.9,30.05,West,268,0.0,0.0,94,0.00,,,0.00,VWS V14.01,2013-10-19 03:46:00,
2013-10-18 23:51:00,40.4,38.8,30.05,West,268,0.0,0.0,94,0.00,,,0.00,VWS V14.01,2013-10-19 03:51:00,
2013-10-18 23:56:00,40.2,38.6,30.05,West,266,0.0,0.0,94,0.00,,,0.00,VWS V14.01,2013-10-19 03:56:00,